Weather History for Laredo, TX

Change the Weather History Date:

Saturday, October 27, 2012

  Actual Average Record
Temperature  
Mean Temperature 59 °F 73 °F  
Max Temperature 65 °F 84 °F 99 °F (1939)
Min Temperature 53 °F 62 °F 36 °F (1932)
Degree Days  
Heating Degree Days 6 1  
Month to date heating degree days 8 4  
Since 1 July heating degree days 8 5  
Cooling Degree Days 0 9  
Month to date cooling degree days 424 313  
Year to date cooling degree days 4854 4098  
Growing Degree Days 8 (Base 50)    
Moisture  
Dew Point 39 °F    
Average Humidity 50    
Maximum Humidity 74    
Minimum Humidity 34    
Precipitation  
Precipitation 0.00 in 0.05 in 2.57 in (1969)
Month to date precipitation 0.03 2.02  
Year to date precipitation 8.79 17.94  
Sea Level Pressure  
Sea Level Pressure 30.22 in    
Wind  
Wind Speed 8 mph (NNE)    
Max Wind Speed 16 mph    
Max Gust Speed 20 mph    
Visibility 10 miles    
Events      
T = Trace of Precipitation, MM = Missing Value Source: NWS Daily Summary

Daily Weather History Graph

Daily Weather History Graph

Search for Another Location

Airport:

Trip Planner

Search our weather history database for the weather conditions in past years. The results will help you decide how hot, cold, wet, or windy it might be!

Date:

Astronomy

Oct. 27, 2012 Rise Set
Actual Time 7:45 AM CDT 6:57 PM CDT
Civil Twilight 7:21 AM CDT 7:21 PM CDT
Nautical Twilight 6:54 AM CDT 7:48 PM CDT
Astronomical Twilight 6:26 AM CDT 8:16 PM CDT
Moon 5:39 PM CDT (10/27) 5:49 AM CDT (10/27)
Length of Visible Light 11h 59m
Length of Day
11h 11m
Waxing Gibbous, 96% of the Moon is Illuminated
Oct 27
Waxing Gibbous
Oct 29
Full
Nov 6
Last Quarter
Nov 13
New
Nov 20
First Quarter

Hourly Weather History & Observations

Time (CDT) Temp. Dew Point Humidity Pressure Visibility Wind Dir Wind Speed Gust Speed Precip Events Conditions
12:56 AM 54.9 °F 46.9 °F 75% 30.26 in 10.0 mi NNW 6.9 mph - N/A   Overcast
1:56 AM 55.9 °F 45.9 °F 69% 30.25 in 10.0 mi NNW 6.9 mph - N/A   Overcast
2:56 AM 55.9 °F 46.9 °F 72% 30.23 in 10.0 mi North 8.1 mph - N/A   Overcast
3:56 AM 55.9 °F 45.0 °F 67% 30.24 in 10.0 mi North 6.9 mph - N/A   Overcast
4:56 AM 54.9 °F 45.9 °F 72% 30.23 in 10.0 mi NNE 9.2 mph - N/A   Overcast
5:56 AM 54.9 °F 41.9 °F 62% 30.25 in 10.0 mi NNE 13.8 mph - N/A   Overcast
6:56 AM 54.0 °F 38.8 °F 57% 30.27 in 10.0 mi NNE 12.7 mph - N/A   Overcast
7:56 AM 52.9 °F 37.9 °F 57% 30.28 in 10.0 mi NNE 12.7 mph - N/A   Mostly Cloudy
8:56 AM 54.0 °F 37.9 °F 55% 30.29 in 10.0 mi NE 8.1 mph - N/A   Overcast
9:56 AM 54.0 °F 36.9 °F 52% 30.30 in 10.0 mi NE 9.2 mph - N/A   Overcast
10:56 AM 55.9 °F 34.9 °F 45% 30.29 in 10.0 mi NNE 12.7 mph - N/A   Overcast
11:56 AM 57.2 °F 35.6 °F 44% 30.31 in 10.0 mi North 10.4 mph - N/A   Mostly Cloudy
12:56 PM 59.0 °F 34.9 °F 40% 30.25 in 10.0 mi NNE 11.5 mph - N/A   Partly Cloudy
1:56 PM 61.0 °F 34.9 °F 38% 30.20 in 10.0 mi Variable 6.9 mph - N/A   Mostly Cloudy
2:56 PM 63.0 °F 36.0 °F 37% 30.17 in 10.0 mi NNE 8.1 mph - N/A   Mostly Cloudy
3:56 PM 63.9 °F 34.9 °F 34% 30.15 in 10.0 mi NNE 10.4 mph - N/A   Mostly Cloudy
4:56 PM 63.9 °F 34.9 °F 34% 30.14 in 10.0 mi NE 6.9 mph - N/A   Clear
5:56 PM 63.0 °F 34.0 °F 34% 30.14 in 10.0 mi NNE 9.2 mph - N/A   Overcast
6:56 PM 61.9 °F 34.9 °F 36% 30.15 in 10.0 mi NE 6.9 mph - N/A   Overcast
7:56 PM 61.9 °F 36.9 °F 39% 30.16 in 10.0 mi NE 6.9 mph - N/A   Overcast
8:56 PM 61.9 °F 36.9 °F 39% 30.17 in 10.0 mi ENE 5.8 mph - N/A   Overcast
9:56 PM 61.9 °F 38.8 °F 43% 30.18 in 10.0 mi East 4.6 mph - N/A   Overcast
10:56 PM 61.0 °F 38.8 °F 44% 30.19 in 10.0 mi ENE 5.8 mph - N/A   Overcast
11:56 PM 61.0 °F 38.8 °F 44% 30.20 in 10.0 mi Calm Calm - N/A   Overcast